This is the latest recevied weather packets stored in our database for station/object JF2ZGN-13. If no packets are shown the sender has not sent any weather packets the latest 10 day(s).
| Time | Temp. | Humidity | Pressure | Rain* | Wind** | Luminosity | Snow |
|---|---|---|---|---|---|---|---|
| 1777987028 | 7.78° C | 75% | 914.1 hPa | 0 mm | - | - | - |
| 1777986426 | 7.78° C | 75% | 914.2 hPa | 0 mm | - | - | - |
| 1777985225 | 7.78° C | 73% | 914 hPa | 0 mm | - | - | - |
| 1777984624 | 7.78° C | 72% | 913.9 hPa | 0 mm | - | - | - |
| 1777984024 | 7.78° C | 68% | 914.1 hPa | 0 mm | - | - | - |
| 1777983424 | 7.78° C | 62% | 914.1 hPa | 0 mm | - | - | - |
| 1777982823 | 7.22° C | 57% | 914 hPa | 0 mm | - | - | - |
| 1777982223 | 7.78° C | 52% | 914 hPa | 0 mm | - | - | - |
| 1777981022 | 7.22° C | 57% | 913.8 hPa | 0 mm | - | - | - |
| 1777980421 | 7.22° C | 58% | 914 hPa | 0 mm | - | - | - |
| 1777979821 | 7.78° C | 46% | 914 hPa | 0 mm | - | - | - |
| 1777979221 | 7.78° C | 33% | 913.6 hPa | 0 mm | - | - | - |
| 1777978620 | 7.78° C | 31% | 913.6 hPa | 0 mm | - | - | - |
| 1777978020 | 7.78° C | 25% | 913.6 hPa | 0 mm | - | - | - |
| 1777977419 | 7.78° C | 25% | 913.8 hPa | 0 mm | - | - | - |
| 1777976819 | 7.78° C | 32% | 913.6 hPa | 0 mm | - | - | - |
| 1777976218 | 7.78° C | 39% | 913.5 hPa | 0 mm | - | - | - |
| 1777975617 | 7.78° C | 37% | 913.6 hPa | 0 mm | - | - | - |
| 1777975016 | 8.33° C | 36% | 913.5 hPa | 0 mm | - | - | - |
| 1777974416 | 8.89° C | 37% | 913.4 hPa | 0 mm | - | - | - |
| 1777973815 | 8.89° C | 39% | 913.3 hPa | 0 mm | - | - | - |
| 1777973215 | 8.89° C | 42% | 913.2 hPa | 0 mm | - | - | - |
| 1777972614 | 9.44° C | 39% | 913.2 hPa | 0 mm | - | - | - |
| 1777972014 | 9.44° C | 39% | 913.1 hPa | 0 mm | - | - | - |
| 1777971414 | 9.44° C | 42% | 913.1 hPa | 0 mm | - | - | - |
* Rain since midnight (hover to see other rain measurements)
** Current wind speed in m/s (hover to see current wind gust speed)